Regional Weather Roundup
Issued by NWS

Home | Current Version | Previous Version | Text Only | Print | Product List | Glossary On
Versions: 1 2 3 4 5 6 7 8 9 10 11 12 13 14 15 16 17 18 19 20 21 22 23 24 25 26 27 28 29 30 31 32 33 34 35 36 37 38 39 40 41 42 43 44 45 46 47 48 49 50
000
ASUS43 KDTX 280001
RWRMI
MICHIGAN HOURLY REGIONAL WEATHER ROUNDUP
NATIONAL WEATHER SERVICE DETROIT/PONTIAC MI
800 PM EDT FRI MAY 27 2016

NOTE: "FAIR" INDICATES FEW OR NO CLOUDS BELOW 12,000 FEET WITH NO
SIGNIFICANT WEATHER AND/OR OBSTRUCTION TO VISIBILITY.

MIZ047>049-052>055-059>063-066>070-074>076-081>083-280100-
SOUTHEAST LOWER MICHIGAN

CITY           SKY/WX    TMP DP  RH WIND       PRES   REMARKS
ADRIAN         PTCLDY    83  61  47 S5        29.93S
6HR MIN TEMP:  80; 6HR MAX TEMP:  87;

ALMA           CLOUDY    76  68  75 CALM      29.92S
6HR MIN TEMP:  71; 6HR MAX TEMP:  83;

ANN ARBOR      CLOUDY    79  65  62 SE5       29.94S
BAD AXE        PTCLDY    76  64  66 SE5       29.95S
CARO           CLOUDY    79  65  61 S6        29.93S
DETROIT CITY   CLOUDY    82  62  50 S7        29.95S
6HR MIN TEMP:  81; 6HR MAX TEMP:  84;

DETROIT        MOCLDY    80  63  55 SE5       29.95S
6HR MIN TEMP:  80; 6HR MAX TEMP:  82;

FLINT          CLOUDY    83  61  47 S6        29.94S
6HR MIN TEMP:  83; 6HR MAX TEMP:  87;

GROSSE ILE     PTCLDY    77  66  69 CALM      29.93F
HILLSDALE      CLOUDY    80  57  45 SE3       29.94S
6HR MIN TEMP:  77; 6HR MAX TEMP:  83;

HOWELL         CLOUDY    79  62  55 SE3       29.95S

CITY           SKY/WX    TMP DP  RH WIND       PRES   REMARKS
JACKSON        PTCLDY    79  63  57 SE6       29.93S
6HR MIN TEMP:  78; 6HR MAX TEMP:  82;

LAMBERTVILLE   PTCLDY    78  64  62 E6        29.95R
6HR MIN TEMP:  78; 6HR MAX TEMP:  87;

LANSING        CLOUDY    79  63  57 SE7       29.93S
6HR MIN TEMP:  79; 6HR MAX TEMP:  85;

LAPEER         FAIR      80  60  50 S7        29.96R
6HR MIN TEMP:  80; 6HR MAX TEMP:  87;

MASON          CLOUDY    79  63  57 SE6       29.94S
MONROE         PTCLDY    75  65  70 E10       29.93S
PONTIAC        CLOUDY    81  64  56 SE8       29.95S
6HR MIN TEMP:  81; 6HR MAX TEMP:  85;

PORT HOPE        N/A     61  59  93 E13       29.94S
6HR MIN TEMP:  58; 6HR MAX TEMP:  63;

PORT HURON     PTCLDY    79  63  57 S7        29.96S
TRI CITIES     CLOUDY    78  70  76 CALM      29.93S
6HR MIN TEMP:  74; 6HR MAX TEMP:  88; 6HR PCP:  0.08;

MIDLAND        PTSUNNY   73  68  83 E3        29.92R
6HR MIN TEMP:  70; 6HR MAX TEMP:  86; 6HR PCP:  0.22;

TROY           CLOUDY    83  63  51 SE5       29.97S
SAGINAW HB     CLOUDY    77  64  65 E3        29.93R
$$
MIZ043>046-050>051-056>058-064>065-071>073-077>080-280100-
SOUTHWEST LOWER MICHIGAN

CITY           SKY/WX    TMP DP  RH WIND       PRES   REMARKS
BATTLE CREEK   MOSUNNY   80  63  55 SE7       29.91S
6HR MIN TEMP:  77; 6HR MAX TEMP:  82;

BENTON HARBOR  RAIN      71  67  87 S9        29.89S FOG
6HR MIN TEMP:  71; 6HR MAX TEMP:  83; 6HR PCP:  0.05;

BIG RAPIDS     CLOUDY    73  70  91 SE3       29.91R
6HR MIN TEMP:  66; 6HR MAX TEMP:  82; 6HR PCP:  0.45;

COLDWATER      CLOUDY    80  62  55 S3        29.92R
6HR MIN TEMP:  76; 6HR MAX TEMP:  82;

FREMONT        PTSUNNY   75  72  89 SE3       29.88S
HOLLAND        LGT RAIN  72  66  81 SW13      29.90R
6HR MIN TEMP:  72; 6HR MAX TEMP:  81; 6HR PCP:  0.02;

GRAND RAPIDS   CLOUDY    79  65  62 E7        29.89F
6HR MIN TEMP:  77; 6HR MAX TEMP:  85; 6HR PCP:  0.03;

IONIA          PTSUNNY   77  63  61 SE7       29.91R
6HR MIN TEMP:  77; 6HR MAX TEMP:  84;

KALAMAZOO      CLOUDY    81  60  48 S6        29.90R
6HR MIN TEMP:  78; 6HR MAX TEMP:  83;

LUDINGTON      LGT RAIN  74  68  80 SE6       29.88R
6HR MIN TEMP:  71; 6HR MAX TEMP:  77;

MARSHALL       MOSUNNY   79  64  58 SE5       29.91S
6HR MIN TEMP:  79; 6HR MAX TEMP:  83;

MOUNT PLEASANT PTSUNNY   73  69  88 CALM      29.91S
6HR MIN TEMP:  72; 6HR MAX TEMP:  85; 6HR PCP:  0.02;

MUSKEGON       LGT RAIN  76  66  71 E3        29.87S
6HR MIN TEMP:  68; 6HR MAX TEMP:  80; 6HR PCP:  0.05;

SOUTH HAVEN    CLOUDY    70  66  88 S3        29.89S
$$
MIZ016>042-280100-
NORTHERN LOWER MICHIGAN

CITY           SKY/WX    TMP DP  RH WIND       PRES   REMARKS
ALPENA         PTSUNNY   63  58  83 E6        29.95R
6HR MIN TEMP:  63; 6HR MAX TEMP:  76;

BEAVER ISLAND  CLOUDY    62  60  92 SE5       29.93R
6HR MIN TEMP:  62; 6HR MAX TEMP:  74;

BELLAIRE       CLOUDY    66  64  93 CALM      29.92S
6HR MIN TEMP:  65; 6HR MAX TEMP:  88;

CADILLAC       CLOUDY    72  65  80 SE5       29.92S
CHARLEVOIX     RAIN      67  66  97 CALM      29.96F
6HR MIN TEMP:  65; 6HR MAX TEMP:  78;

FRANKFORT      CLOUDY    69  64  84 E3        29.87F
GAYLORD        CLOUDY    68  64  87 NW3       29.95R
6HR MIN TEMP:  68; 6HR MAX TEMP:  85; 6HR PCP: TRACE;

GRAYLING       CLOUDY    76  66  71 CALM      29.95R
HARBOR SPRINGS RAIN      67  65  96 CALM      29.94F
HOUGHTON LAKE  CLOUDY    74  63  68 S6        29.94R
6HR MIN TEMP:  74; 6HR MAX TEMP:  83; 6HR PCP: TRACE;

MANISTEE       MOSUNNY   75  64  69 SE5       29.88S
OSCODA         PTCLDY    65  58  78 SE3       29.94S
6HR MIN TEMP:  65; 6HR MAX TEMP:  74;

PELLSTON       LGT RAIN  69  65  86 CALM      29.95R FOG
6HR MIN TEMP:  69; 6HR MAX TEMP:  84; 6HR PCP:  0.11;

ROGERS CITY    CLOUDY    63  56  80 N3        29.93S
TRAVERSE CITY  CLOUDY    68  66  93 E6        29.88F
6HR MIN TEMP:  67; 6HR MAX TEMP:  88; 6HR PCP:  0.67;

$$
MIZ007>008-015-280100-
EASTERN UPPER MICHIGAN

CITY           SKY/WX    TMP DP  RH WIND       PRES   REMARKS
KINROSS          N/A     72  55  56 E9        29.94S
6HR MIN TEMP:  72; 6HR MAX TEMP:  79;

MACKINAC ISLAN CLOUDY    55  55 100 E10G17    29.94R
6HR MIN TEMP:  55; 6HR MAX TEMP:  65;

NEWBERRY       CLOUDY    71  58  64 SE10      29.93R
6HR MIN TEMP:  71; 6HR MAX TEMP:  78;

S. S. MARIE    CLOUDY    71  59  65 SE7       29.94R
6HR MIN TEMP:  71; 6HR MAX TEMP:  78;

MUNISING         N/A     54  52  93 CALM      29.87F
6HR MIN TEMP:  53; 6HR MAX TEMP:  57; 6HR PCP:  0.01;

$$
MIZ004>006-011>014-085-280100-
CENTRAL UPPER MICHIGAN

CITY           SKY/WX    TMP DP  RH WIND       PRES   REMARKS
MANISTIQUE     CLOUDY    64  59  86 E6        29.90F
6HR MIN TEMP:  61; 6HR MAX TEMP:  72; 6HR PCP:  0.01;

ESCANABA       CLOUDY    63  61  94 MISG      29.87
6HR MIN TEMP:  61; 6HR MAX TEMP:  64; 6HR PCP:  0.16;

MENOMINEE      LGT RAIN  61  60  97 SE9       29.86F FOG
6HR MIN TEMP:  61; 6HR MAX TEMP:  65; 6HR PCP:  0.46;

SAWYER-GWINN   CLOUDY    66  59  77 SE6       29.89F
$$
MIZ001>003-009>011-084-280100-
WESTERN UPPER MICHIGAN

CITY           SKY/WX    TMP DP  RH WIND       PRES   REMARKS
IRON MOUNTAIN  LGT RAIN  65  62  90 SE6       29.85S
6HR MIN TEMP:  65; 6HR MAX TEMP:  74; 6HR PCP: TRACE;

HOUGHTON       LGT RAIN  56  52  86 E7        29.88R
6HR MIN TEMP:  56; 6HR MAX TEMP:  65; 6HR PCP:  0.01;

COPPER HARBOR    N/A     49  46  90 CALM      29.88S
6HR MIN TEMP:  45; 6HR MAX TEMP:  52;

IRONWOOD       CLOUDY    57  55  94 CALM      29.80F
6HR MIN TEMP:  57; 6HR MAX TEMP:  66; 6HR PCP:  0.04;

$$

ABBREVIATIONS USED IN REMARKS
   TC - TEMPERATURE IN CELSIUS
  WCI - WIND CHILL INDEX
   HX - HEAT INDEX
  VSB - VISIBILITY





USA.gov is the U.S. government's official web portal to all federal, state and local government web resources and services.